Content
SEND FEEDBACK

Daily
Averages
Monthly
Summary
Iran

YAZD - EAST, IRAN


Home > Middle East > Iran
Elevation: 4034 feet     Latitude: 31 54N     Longitude: 054 24E

WEATHER
 
SELECT A DAY
Number of Records: 132,105;   Date Range: 9/27/01 - 8/31/14
 
SHARE

PRINT THIS DATA

[ ← Previous Day ]
WEATHER ALMANAC - JANUARY 31, 2013
[ Next Day → ]
[ °C ]   °F
Weather ElementAverageHighLow
Temperature56.4 °F66.2 °F (2:20 pm)44.6 °F (1:30 am)
Dewpoint29.1 °F35.6 °F (7:20 pm)17.6 °F (1:30 am)
Humidity35 %46 % (5:20 am)16 % (3:30 pm)
Barometer29.86 in30.01 in (6:20 am)29.71 in (3:30 pm)
Wind Speed6.5 mph27.6 mph (6:20 pm)
Weather ElementAverage
Visibility5.4 mi
Wind DirectionSSE (167 °)

Weather ElementTotal
Precipitation---
Heating Degree Days9.6 (Base 65)
Growing Degree Days5.4 (Base 50)
Averaged from 44 records on January 31, 2013
WEATHER CONDITIONS BREAKOUT
WIND DIRECTION BREAKOUT
WEATHER BY HOUR - JANUARY 31, 2013
[ °C ]   °F
Local TimeTemperatureDewpointHumidityBarometerVisibilityWind DirectionWind SpeedGust SpeedPrecipitationEventsConditions
1:30 AM44.6 °F17.6 °F34 %29.98 inCalmClear
2:30 AM44.6 °F19.4 °F37 %29.98 inCalmClear
3:30 AM46.0 °F23.0 °F27 %29.88 in6.0 miWest (280°)4.5 mphOvercast
5:20 AM44.6 °F24.8 °F46 %29.98 in6.2 miWest (280°)6.9 mphOvercast
6:20 AM44.6 °F24.8 °F46 %30.01 in6.2 miCalmOvercast
7:20 AM44.6 °F24.8 °F46 %29.98 in6.2 miCalmOvercast
8:20 AM46.4 °F26.6 °F46 %30.01 in6.2 miCalmOvercast
9:20 AM50.0 °F28.4 °F43 %29.98 in6.2 miCalmOvercast
9:30 AM50.0 °F28.0 °F30 %29.94 in6.0 miCalmOvercast
10:20 AM53.6 °F28.4 °F38 %29.98 in6.2 miCalmOvercast
11:20 AM55.4 °F26.6 °F33 %29.95 in6.2 miESE (110°)4.6 mphOvercast
11:30 AM55.4 °F26.6 °F33 %29.95 in6.2 miESE (110°)4.6 mphOvercast
12:20 PM60.8 °F26.6 °F27 %29.89 in6.2 miESE (120°)4.6 mphOvercast
12:30 PM60.8 °F26.6 °F27 %29.89 in6.2 miESE (120°)4.6 mphOvercast
1:20 PM64.4 °F26.6 °F24 %29.83 in4.3 miSE (140°)6.9 mphOvercast
1:30 PM64.4 °F26.6 °F24 %29.83 in4.3 miSE (140°)6.9 mphOvercast
2:20 PM66.2 °F23.0 °F19 %29.80 in3.7 miEast (100°)4.6 mphOvercast
2:30 PM66.2 °F23.0 °F19 %29.80 in3.7 miEast (100°)4.6 mphOvercast
3:20 PM62.6 °F28.4 °F27 %29.80 in3.7 miNNW (340°)6.9 mphOvercast
3:30 PM63.0 °F28.0 °F16 %29.71 in4.0 miNNW (340°)6.7 mphHaze
3:30 PM62.6 °F28.4 °F27 %29.80 in3.7 miNNW (340°)6.9 mphOvercast
4:00 PM59.0 °F28.4 °F31 %29.80 in3.7 miNNW (340°)9.2 mphOvercast
4:20 PM59.0 °F28.4 °F31 %29.80 in3.7 miNorth (350°)9.2 mphOvercast
4:30 PM59.0 °F28.4 °F31 %29.80 in3.7 miNorth (350°)9.2 mphOvercast
5:00 PM59.0 °F28.4 °F31 %29.83 in3.7 miNorth (350°)4.6 mphOvercast
5:20 PM57.2 °F28.4 °F33 %29.80 in3.7 miWNW (290°)6.9 mphOvercast
5:30 PM57.2 °F28.4 °F33 %29.80 in3.7 miWNW (290°)6.9 mphOvercast
6:00 PM59.0 °F28.4 °F31 %29.83 in5.0 miWest (280°)13.8 mphOvercast
6:20 PM59.0 °F30.2 °F34 %29.83 in6.2 miWSW (250°)27.6 mphMostly Cloudy
7:00 PM57.2 °F30.2 °F36 %29.83 in6.2 miSouth (190°)23.0 mphMostly Cloudy
7:20 PM57.2 °F35.6 °F44 %29.86 in6.2 miSSE (160°)9.2 mphMostly Cloudy
7:30 PM57.2 °F35.6 °F44 %29.86 in6.2 miSSE (160°)9.2 mphMostly Cloudy
8:00 PM59.0 °F33.8 °F39 %29.86 in6.2 miEast (100°)4.6 mphMostly Cloudy
8:20 PM57.2 °F33.8 °F41 %29.83 in6.2 miESE (110°)6.9 mphMostly Cloudy
8:30 PM57.2 °F33.8 °F41 %29.83 in6.2 miESE (110°)6.9 mphMostly Cloudy
9:00 PM57.2 °F33.8 °F41 %29.83 in6.2 miENE (70°)4.6 mphMostly Cloudy
9:20 PM57.2 °F33.8 °F41 %29.83 in6.2 miESE (120°)6.9 mphMostly Cloudy
9:30 PM58.0 °F34.0 °F28 %29.76 in6.0 miESE (120°)6.7 mphScattered Clouds
9:30 PM57.2 °F33.8 °F41 %29.83 in6.2 miESE (120°)6.9 mphMostly Cloudy
10:00 PM57.2 °F35.6 °F44 %29.83 in6.2 miSSW (200°)9.2 mphMostly Cloudy
10:20 PM57.2 °F35.6 °F44 %29.83 in6.2 miSSW (200°)9.2 mphMostly Cloudy
10:30 PM57.2 °F35.6 °F44 %29.83 in6.2 miSSW (200°)9.2 mphMostly Cloudy
11:20 PM57.2 °F35.6 °F44 %29.83 in6.2 miSSE (150°)6.9 mphMostly Cloudy
11:30 PM57.2 °F35.6 °F44 %29.83 in6.2 miSSE (150°)6.9 mphMostly Cloudy
Hourly data recorded from OIYY, located miles away from Yazd - East, Iran







STORIES FROM OUR PARTNERS